DW5683 Weather Reports


Display with metric or nautical units.
time (UTC)temp
F
wind
direction
speed
MPH
gust
MPH
rain 1hr
in
rain 24hr
in
rain mn
in
humidity
%
barometer
mb
20260906100041 55 0 0.0 0.0 0.00 0.00 0.00 81 1012.6
20260906094542 55 0 0.0 0.0 0.00 0.00 0.00 80 1012.5
20260906093049 56 0 0.0 0.0 0.00 0.00 0.00 80 1012.6
20260906091543 56 0 0.0 0.0 0.00 0.00 0.00 80 1012.6
20260906090043 56 0 0.0 0.0 0.00 0.00 0.00 79 1012.8
20260906084549 56 0 0.0 0.0 0.00 0.00 0.00 79 1012.8
20260906083048 56 0 0.0 0.0 0.00 0.00 0.00 79 1012.9
20260906081548 57 0 0.0 0.0 0.00 0.00 0.00 79 1012.9
20260906080043 57 0 0.0 0.0 0.00 0.00 0.00 77 1013.0
20260906074607 57 0 0.0 0.0 0.00 0.00 0.00 76 1012.9
20260906073050 58 0 0.0 0.0 0.00 0.00 0.00 76 1013.0
20260906071544 59 0 0.0 0.0 0.00 0.00 0.00 74 1013.1
20260906070040 59 0 0.0 0.0 0.00 0.00 0.00 73 1013.1
20260906064548 60 0 0.0 0.0 0.00 0.00 0.00 72 1013.1
20260906063041 61 0 0.0 0.0 0.00 0.00 0.00 70 1013.1
20260906061555 61 0 0.0 0.0 0.00 0.00 0.00 69 1013.2
20260906060048 62 0 0.0 0.0 0.00 0.00 0.00 67 1013.3
20260906054543 63 0 0.0 0.0 0.00 0.00 0.00 66 1013.2
20260906053041 64 0 0.0 0.0 0.00 0.00 0.00 62 1013.2
20260906051559 65 0 0.0 0.0 0.00 0.00 0.00 62 1013.0
20260906050049 66 0 0.0 0.0 0.00 0.00 0.00 59 1013.0
20260906044541 67 0 0.0 0.0 0.00 0.00 0.00 54 1013.0
20260906043041 67 0 0.0 0.0 0.00 0.00 0.00 55 1012.9
20260906041547 68 0 0.0 0.0 0.00 0.00 0.00 56 1012.8
20260906040046 69 0 0.0 0.0 0.00 0.00 0.00 53 1012.6
20260906034551 72 0 0.0 0.0 0.00 0.00 0.00 51 1012.4
20260906033052 73 0 0.0 3.0 0.00 0.00 0.00 41 1012.2
20260906031554 74 0 0.0 0.0 0.00 0.00 0.00 41 1012.1
20260906030046 76 0 0.0 3.0 0.00 0.00 0.00 41 1012.0
20260906024548 77 182 0.0 4.0 0.00 0.00 0.00 39 1011.9
20260906023041 78 0 1.0 5.0 0.00 0.00 0.00 39 1011.9
20260906021542 79 182 1.0 5.0 0.00 0.00 0.00 38 1012.0
20260906020057 81 182 2.0 5.0 0.00 0.00 0.00 36 1012.0
20260906014547 81 0 0.0 2.0 0.00 0.00 0.00 36 1012.0
20260906013042 82 182 2.0 7.0 0.00 0.00 0.00 35 1011.9
20260906011547 82 182 1.0 6.0 0.00 0.00 0.00 35 1012.0
20260906010050 82 0 0.0 4.0 0.00 0.00 0.00 34 1012.1
20260906004544 81 0 0.0 3.0 0.00 0.00 0.00 36 1012.1
20260906003043 81 0 0.0 4.0 0.00 0.00 0.00 35 1012.3
20260906001548 81 182 0.0 3.0 0.00 0.00 0.00 35 1012.2
20260906000050 82 182 0.0 5.0 0.00 0.00 0.00 34 1012.2
20260905234545 83 182 0.0 9.0 0.00 0.00 0.00 33 1012.3
20260905233050 84 183 0.0 6.0 0.00 0.00 0.00 33 1012.3
20260905231547 83 0 0.0 6.0 0.00 0.00 0.00 34 1012.3
20260905230049 82 166 3.0 7.0 0.00 0.00 0.00 36 1012.5
20260905224602 83 0 2.0 6.0 0.00 0.00 0.00 33 1012.7
20260905223048 82 0 0.0 3.0 0.00 0.00 0.00 34 1012.9
20260905221556 83 196 0.0 8.0 0.00 0.00 0.00 35 1012.9
20260905220103 82 201 1.0 6.0 0.00 0.00 0.00 35 1012.9
20260905214547 83 201 0.0 9.0 0.00 0.00 0.00 34 1013.2
20260905213046 83 208 1.0 5.0 0.00 0.00 0.00 36 1013.2
20260905211543 82 208 1.0 6.0 0.00 0.00 0.00 37 1013.4
20260905210054 80 207 2.0 6.0 0.00 0.00 0.00 37 1013.5
20260905204549 80 212 1.0 5.0 0.00 0.00 0.00 35 1013.6
20260905203103 80 212 2.0 5.0 0.00 0.00 0.00 36 1013.8
20260905201545 80 214 2.0 6.0 0.00 0.00 0.00 37 1013.6
20260905200053 80 0 0.0 7.0 0.00 0.00 0.00 36 1013.8
20260905194545 80 215 3.0 7.0 0.00 0.00 0.00 40 1013.9
20260905193043 79 210 3.0 7.0 0.00 0.00 0.00 39 1014.0
20260905191548 79 209 2.0 6.0 0.00 0.00 0.00 39 1014.1
20260905190048 78 0 1.0 7.0 0.00 0.00 0.00 39 1014.2
20260905184545 78 215 1.0 6.0 0.00 0.00 0.00 41 1014.2
20260905183055 78 0 1.0 5.0 0.00 0.00 0.00 41 1014.2
20260905181602 79 206 1.0 6.0 0.00 0.00 0.00 45 1014.0
20260905180042 77 215 0.0 5.0 0.00 0.00 0.00 46 1014.1
20260905174549 76 0 0.0 5.0 0.00 0.00 0.00 48 1014.0
20260905173045 75 220 1.0 4.0 0.00 0.00 0.00 50 1014.0
20260905171545 74 219 1.0 3.0 0.00 0.00 0.00 51 1014.0
20260905170042 73 220 0.0 2.0 0.00 0.00 0.00 53 1013.9
20260905164548 72 0 0.0 2.0 0.00 0.00 0.00 55 1013.9
20260905163047 69 0 0.0 0.0 0.00 0.00 0.00 58 1013.8
20260905161541 67 0 0.0 0.0 0.00 0.00 0.00 62 1013.9
20260905160115 65 0 0.0 1.0 0.00 0.00 0.00 67 1013.9
20260905154549 62 0 0.0 0.0 0.00 0.00 0.00 72 1013.8
20260905153044 59 0 0.0 1.0 0.00 0.00 0.00 81 1014.1
20260905151546 55 0 0.0 1.0 0.00 0.00 0.00 92 1014.0
20260905150048 51 0 0.0 0.0 0.00 0.00 0.00 91 1014.0
20260905144549 50 0 0.0 0.0 0.00 0.00 0.00 91 1014.0
20260905143046 49 0 0.0 0.0 0.00 0.00 0.00 91 1014.0
20260905141543 48 0 0.0 0.0 0.00 0.00 0.00 90 1013.9
20260905140039 49 0 0.0 0.0 0.00 0.00 0.00 90 1013.8
20260905134544 49 0 0.0 0.0 0.00 0.00 0.00 90 1013.7
20260905133042 49 0 0.0 0.0 0.00 0.00 0.00 90 1013.6
20260905131548 49 0 0.0 0.0 0.00 0.00 0.00 90 1013.5
20260905130043 49 0 0.0 0.0 0.00 0.00 0.00 90 1013.5
20260905124542 49 0 0.0 0.0 0.00 0.00 0.00 90 1013.4
20260905123049 49 0 0.0 0.0 0.00 0.00 0.00 90 1013.5
20260905121546 50 0 0.0 0.0 0.00 0.00 0.00 90 1013.4
20260905120129 50 0 0.0 0.0 0.00 0.00 0.00 90 1013.5
20260905114547 50 0 0.0 0.0 0.00 0.00 0.00 90 1013.5
20260905113048 50 0 0.0 0.0 0.00 0.00 0.00 90 1013.5
20260905111554 50 0 0.0 0.0 0.00 0.00 0.00 90 1013.7
20260905110056 50 0 0.0 0.0 0.00 0.00 0.00 89 1013.8
20260905104545 50 0 0.0 0.0 0.00 0.01 0.00 89 1013.7
20260905103052 50 0 0.0 0.0 0.00 0.01 0.00 89 1013.9
20260905101545 50 0 0.0 0.0 0.00 0.01 0.00 88 1014.1